Amateur Radio Satellites - All Passes

Search period start: 22 May 2013 16:33
Search period end: 23 May 2013 16:33
Location: Lake Runnemede Observatory, 43.4843°N, 72.3851°W

Satellite Date Start Highest point End Downlink Frequencies (MHz)
Time Altitude Azimuth
TMSAT-1 22 May 16:39:17 16:44:10 37° 263° (W) 16:49:05 436.925 FM
SO-50 22 May 16:50:31 16:54:43 35° 47° (NE) 16:58:50 436.795 FM
PCSat 22 May 16:51:03 16:56:31 84° 241° (WSW) 17:01:56 145.825 MHz
Gurwin Techsat 1B 22 May 17:02:57 17:06:15 17° 270° (W) 17:09:34 435.225 FM
AO-7 22 May 17:07:43 17:15:58 72° 254° (WSW) 17:24:19 29.400 - 29.500 MHz
Sapphire 22 May 17:24:13 17:29:25 48° 246° (WSW) 17:34:35 437.095 MHz 1200 baud AX-25 AFSK
RS-15 22 May 17:32:36 17:44:40 78° 306° (NW) 17:56:13 29.354 - 29.394 USB, Beacon 29.352 USB
Hamsat 22 May 17:36:27 17:37:03 10° 60° (ENE) 17:37:39 145.90 MHz
UOSAT-12 22 May 18:15:05 18:16:11 11° 29° (NNE) 18:17:18 437.025 FM, 437.400 FM
SO-50 22 May 18:31:18 18:35:16 30° 245° (WSW) 18:39:10 436.795 FM
JAS-1B 22 May 18:36:11 18:44:17 39° 65° (ENE) 18:51:18 435.800 - 435.900 CW/SSB
PCSat 22 May 18:37:21 18:39:04 11° 258° (WSW) 18:40:46 145.825 MHz
STRAND 1 22 May 18:48:49 18:53:40 40° 98° (E) 18:58:29 ?
AO-7 22 May 19:06:31 19:10:12 13° 274° (W) 19:13:55 29.400 - 29.500 MHz
Hamsat 22 May 19:08:14 19:12:27 83° 257° (WSW) 19:16:43 145.90 MHz
HO-68 22 May 19:25:46 19:29:55 17° 51° (NE) 19:34:04 435.675 MHz FM
JAS-2 22 May 19:47:22 19:52:07 18° 53° (NE) 19:56:51 435.800 - 435.900 CW/SSB, 435.910 FM
RS-15 22 May 19:49:03 19:59:14 32° 334° (NNW) 20:09:04 29.354 - 29.394 USB, Beacon 29.352 USB
UOSAT-12 22 May 19:53:03 19:57:30 47° 50° (NE) 20:01:57 437.025 FM, 437.400 FM
SO-67 22 May 19:55:30 19:59:03 68° 259° (W) 20:02:38 435.3500 MHz FM
JAS-1B 22 May 20:25:37 20:34:38 54° 260° (W) 20:42:23 435.800 - 435.900 CW/SSB
STRAND 1 22 May 20:28:25 20:32:41 27° 295° (WNW) 20:36:57 ?
Oscar 11 22 May 21:06:23 21:10:10 30° 68° (ENE) 21:13:57 145.825 FM, Beacon 2401.500 USB
HO-68 22 May 21:09:22 21:16:28 76° 70° (ENE) 21:23:37 435.675 MHz FM
OPAL 22 May 21:14:34 21:18:52 27° 62° (ENE) 21:23:09 ?
AO-40 22 May 21:15:52 02:42:53 44° 179° (S) 08:47:01 Beacon 2401.320
JAS-2 22 May 21:28:09 21:35:50 72° 72° (ENE) 21:43:39 435.800 - 435.900 CW/SSB, 435.910 FM
UOSAT-12 22 May 21:33:50 21:37:24 22° 248° (WSW) 21:40:56 437.025 FM, 437.400 FM
RS-15 22 May 22:07:21 22:16:25 26° 10° (N) 22:25:11 29.354 - 29.394 USB, Beacon 29.352 USB
KITSAT 1 22 May 22:07:57 22:14:37 30° 106° (ESE) 22:21:20 435.175 FM
Oscar 11 22 May 22:42:48 22:46:23 25° 265° (W) 22:50:01 145.825 FM, Beacon 2401.500 USB
OPAL 22 May 22:52:38 22:57:33 42° 259° (W) 23:02:27 ?
HO-68 22 May 22:59:42 23:04:50 21° 269° (W) 23:10:01 435.675 MHz FM
JAS-2 22 May 23:15:12 23:21:24 26° 270° (W) 23:27:43 435.800 - 435.900 CW/SSB, 435.910 FM
KITSAT 1 23 May 00:01:25 00:09:25 67° 306° (NW) 00:17:32 435.175 FM
MaSat-1 23 May 00:15:49 00:18:06 12° 100° (E) 00:20:18 437.345 MHz
RS-15 23 May 00:21:29 00:32:21 50° 42° (NE) 00:42:50 29.354 - 29.394 USB, Beacon 29.352 USB
Oscar 16 23 May 01:23:23 01:26:19 15° 90° (E) 01:29:13 437.025 USB, Beacon 2401.1428
AO-27 23 May 01:32:57 01:35:27 13° 89° (E) 01:37:56 436.795 MHz FM
ITAMSAT 1 23 May 01:39:11 01:42:09 15° 90° (E) 01:45:07 435.822 SSB
ISS 23 May 01:46:09 01:47:23 12° 130° (SE) 01:48:37 145.800 FM
MaSat-1 23 May 01:52:39 01:59:41 69° 114° (ESE) 02:05:26 437.345 MHz
KITSAT 1 23 May 02:00:27 02:06:30 22° 331° (NNW) 02:12:35 435.175 FM
Uribyol 2 23 May 02:18:49 02:23:39 37° 97° (E) 02:28:27 436.500 FM
Oscar 19 23 May 02:21:43 02:26:41 45° 99° (E) 02:31:35 437.125 CW, 437.150 USB
AO-Echo 23 May 02:26:10 02:28:24 13° 90° (E) 02:30:39 ?
RS-15 23 May 02:34:15 02:44:53 55° 247° (WSW) 02:55:18 29.354 - 29.394 USB, Beacon 29.352 USB
Oscar 16 23 May 03:01:02 03:06:12 70° 287° (WNW) 03:11:19 437.025 USB, Beacon 2401.1428
AO-27 23 May 03:10:20 03:15:34 79° 286° (WNW) 03:20:48 436.795 MHz FM
ITAMSAT 1 23 May 03:16:58 03:22:11 71° 287° (WNW) 03:27:23 435.822 SSB
ISS 23 May 03:20:17 03:23:36 88° 146° (SSE) 03:26:57 145.800 FM
Gurwin Techsat 1B 23 May 03:36:15 03:40:33 24° 93° (E) 03:44:49 435.225 FM
MaSat-1 23 May 03:36:46 03:42:08 25° 308° (NW) 03:46:42 437.345 MHz
Uosat F 23 May 03:55:58 04:00:45 42° 99° (E) 04:05:30 435.120 FM
Uribyol 2 23 May 03:58:31 04:03:02 30° 294° (WNW) 04:07:32 436.500 FM
Oscar 19 23 May 04:01:38 04:05:47 25° 296° (WNW) 04:09:54 437.125 CW, 437.150 USB
KITSAT 1 23 May 04:01:43 04:05:38 14° 1° (N) 04:09:33 435.175 FM
AO-Echo 23 May 04:02:57 04:07:41 69° 286° (WNW) 04:12:29 ?
Oscar 16 23 May 04:44:03 04:44:37 10° 305° (NW) 04:45:10 437.025 USB, Beacon 2401.1428
AO-27 23 May 04:52:26 04:54:15 12° 304° (NW) 04:56:03 436.795 MHz FM
TMSAT-1 23 May 04:53:26 04:58:47 81° 104° (ESE) 05:04:05 436.925 FM
ISS 23 May 04:57:49 05:00:39 25° 346° (NNW) 05:03:30 145.800 FM
ITAMSAT 1 23 May 04:59:46 05:00:45 11° 305° (NW) 05:01:44 435.822 SSB
AO-7 23 May 05:08:10 05:15:49 38° 98° (E) 05:23:24 29.400 - 29.500 MHz
Gurwin Techsat 1B 23 May 05:15:40 05:20:44 45° 291° (WNW) 05:25:46 435.225 FM
Saudisat 1A 23 May 05:34:00 05:38:22 47° 118° (ESE) 05:42:48 436.775 MHz
Uosat F 23 May 05:35:17 05:39:20 25° 296° (WNW) 05:43:22 435.120 FM
KITSAT 1 23 May 05:58:16 06:04:38 24° 32° (NNE) 06:10:58 435.175 FM
STRAND 1 23 May 06:06:00 06:11:02 66° 73° (ENE) 06:16:06 ?
Sapphire 23 May 06:25:43 06:29:21 19° 105° (ESE) 06:33:00 437.095 MHz 1200 baud AX-25 AFSK
TMSAT-1 23 May 06:35:03 06:38:02 15° 301° (WNW) 06:41:01 436.925 FM
ISS 23 May 06:35:33 06:38:09 21° 6° (N) 06:40:46 145.800 FM
Hamsat 23 May 06:54:39 06:57:32 17° 91° (E) 07:00:24 145.90 MHz
AO-7 23 May 07:00:47 07:08:48 53° 297° (WNW) 07:16:49 29.400 - 29.500 MHz
Saudisat 1A 23 May 07:14:25 07:18:17 26° 317° (NW) 07:22:11 436.775 MHz
PCSat 23 May 07:33:48 07:39:11 73° 118° (ESE) 07:44:37 145.825 MHz
STRAND 1 23 May 07:47:42 07:50:42 16° 270° (W) 07:53:44 ?
KITSAT 1 23 May 07:53:20 08:01:30 75° 56° (NE) 08:09:37 435.175 FM
Sapphire 23 May 08:06:51 08:12:13 66° 303° (WNW) 08:17:38 437.095 MHz 1200 baud AX-25 AFSK
JAS-1B 23 May 08:11:02 08:16:43 41° 97° (E) 08:22:01 435.800 - 435.900 CW/SSB
ISS 23 May 08:12:11 08:15:27 46° 26° (NNE) 08:18:43 145.800 FM
Hamsat 23 May 08:29:40 08:33:50 46° 288° (WNW) 08:38:01 145.90 MHz
HO-68 23 May 08:39:16 08:41:30 12° 86° (E) 08:43:44 435.675 MHz FM
SO-50 23 May 08:46:49 08:51:34 66° 121° (ESE) 08:56:17 436.795 FM
SO-67 23 May 08:54:35 08:58:07 59° 285° (WNW) 09:01:39 435.3500 MHz FM
AO-7 23 May 08:56:06 08:59:44 14° 319° (NW) 09:03:22 29.400 - 29.500 MHz
PCSat 23 May 09:19:04 09:23:11 22° 318° (NW) 09:27:20 145.825 MHz
ISS 23 May 09:49:09 09:52:02 27° 223° (SW) 09:54:55 145.800 FM
KITSAT 1 23 May 09:49:47 09:56:08 26° 255° (WSW) 10:02:28 435.175 FM
Sapphire 23 May 09:53:48 09:56:44 15° 325° (NW) 09:59:42 437.095 MHz 1200 baud AX-25 AFSK
JAS-1B 23 May 10:02:04 10:07:14 29° 299° (WNW) 10:12:03 435.800 - 435.900 CW/SSB
JAS-2 23 May 10:22:55 10:29:46 57° 99° (E) 10:35:44 435.800 - 435.900 CW/SSB, 435.910 FM
HO-68 23 May 10:23:15 10:30:25 70° 104° (ESE) 10:37:34 435.675 MHz FM
Oscar 11 23 May 10:28:43 10:33:00 52° 100° (E) 10:37:16 145.825 FM, Beacon 2401.500 USB
SO-50 23 May 10:28:59 10:32:38 21° 320° (NW) 10:36:15 436.795 FM
MaSat-1 23 May 10:37:53 10:40:45 23° 51° (NE) 10:43:10 437.345 MHz
OPAL 23 May 11:01:19 11:06:07 45° 101° (E) 11:10:51 ?
UOSAT-12 23 May 11:45:19 11:49:49 84° 123° (ESE) 11:54:24 437.025 FM, 437.400 FM
Oscar 19 23 May 12:05:19 12:06:27 11° 55° (NE) 12:07:35 437.125 CW, 437.150 USB
Oscar 11 23 May 12:06:04 12:08:50 17° 297° (WNW) 12:11:35 145.825 FM, Beacon 2401.500 USB
JAS-2 23 May 12:08:34 12:14:17 28° 301° (WNW) 12:19:29 435.800 - 435.900 CW/SSB, 435.910 FM
HO-68 23 May 12:11:53 12:17:31 26° 303° (WNW) 12:23:09 435.675 MHz FM
MaSat-1 23 May 12:20:37 12:22:27 15° 258° (WSW) 12:24:07 437.345 MHz
Saudisat 1A 23 May 12:22:20 12:24:00 12° 30° (NNE) 12:25:39 436.775 MHz
OPAL 23 May 12:40:47 12:44:45 24° 299° (WNW) 12:48:41 ?
Oscar 16 23 May 12:41:08 12:45:22 26° 64° (ENE) 12:49:37 437.025 USB, Beacon 2401.1428
AO-27 23 May 12:51:46 12:55:51 24° 63° (ENE) 12:59:58 436.795 MHz FM
ITAMSAT 1 23 May 12:58:02 13:02:18 27° 64° (ENE) 13:06:35 435.822 SSB
UOSAT-12 23 May 13:27:35 13:30:36 17° 323° (NW) 13:33:38 437.025 FM, 437.400 FM
Uribyol 2 23 May 13:37:53 13:42:59 62° 72° (ENE) 13:48:07 436.500 FM
Oscar 19 23 May 13:39:42 13:44:53 72° 74° (ENE) 13:50:05 437.125 CW, 437.150 USB
AO-Echo 23 May 13:40:10 13:43:42 21° 64° (ENE) 13:47:12 ?
Saudisat 1A 23 May 14:00:16 14:04:45 54° 51° (NE) 14:09:08 436.775 MHz
Oscar 16 23 May 14:19:35 14:24:30 43° 262° (W) 14:29:28 437.025 USB, Beacon 2401.1428
AO-7 23 May 14:21:16 14:25:13 14° 42° (NE) 14:29:10 29.400 - 29.500 MHz
AO-27 23 May 14:30:09 14:35:06 46° 261° (W) 14:40:06 436.795 MHz FM
ITAMSAT 1 23 May 14:36:44 14:41:36 41° 262° (W) 14:46:31 435.822 SSB
TMSAT-1 23 May 14:37:40 14:41:24 20° 61° (ENE) 14:45:09 436.925 FM
PCSat 23 May 14:38:29 14:41:47 16° 37° (NE) 14:45:03 145.825 MHz
RS-15 23 May 14:49:03 14:57:43 24° 101° (E) 15:06:07 29.354 - 29.394 USB, Beacon 29.352 USB
Gurwin Techsat 1B 23 May 14:58:24 15:03:21 42° 69° (ENE) 15:08:21 435.225 FM
Uosat F 23 May 15:10:27 15:15:24 67° 73° (ENE) 15:20:23 435.120 FM
Sapphire 23 May 15:10:57 15:15:18 24° 44° (NE) 15:19:38 437.095 MHz 1200 baud AX-25 AFSK
AO-Echo 23 May 15:17:33 15:22:13 47° 261° (W) 15:26:48 ?
Uribyol 2 23 May 15:19:33 15:22:54 17° 269° (W) 15:26:16 436.500 FM
Oscar 19 23 May 15:21:57 15:24:46 15° 271° (W) 15:27:37 437.125 CW, 437.150 USB
SO-50 23 May 15:38:36 15:41:16 15° 34° (NE) 15:43:53 436.795 FM
Saudisat 1A 23 May 15:40:54 15:44:03 19° 249° (WSW) 15:47:09 436.775 MHz
AO-7 23 May 16:08:13 16:16:13 56° 64° (ENE) 16:24:17 29.400 - 29.500 MHz
TMSAT-1 23 May 16:15:39 16:20:52 60° 259° (W) 16:26:08 436.925 FM
PCSat 23 May 16:20:43 16:26:11 74° 58° (ENE) 16:31:36 145.825 MHz

Developed and maintained by Chris Peat, Heavens-Above GmbH. Please read the updated FAQ before sending e-mail. Imprint. DLR
